Date String (YYYY-MM-DD hh:mm:ss) UTC,Instrument flags,Ambient pressure (hPa),Sample flow (lpm),Bypass flow (lpm),Sample temperature (°C),Ambient temperature (°C),ASC tube jacket temperature (°C),LED temperature (°C),Box temperature (°C),Sample RH (%),Span deviation,Mass concentration (μg/m³),Mass concentration (μg/m³),Mass concentration (μg/m³)
DateTimeUTC,F1_M11,P_M11,Q1_M11,Q2_M11,T1_M11,T2_M11,T3_M11,T4_M11,T5_M11,U1_M11,ZSPAN_M11,X0_M11,X2_M11,X1_M11
2022-09-11 03:00:00,,0835.5,5.00,0.00,28.1,26.6,00.0,36.8,30.0,28.6,0000.0,0005.02,0003.73,0003.57
2022-09-11 03:01:00,,0835.5,4.98,0.00,28.1,26.6,00.0,36.8,30.0,28.6,0000.0,0004.97,0003.69,0003.54
2022-09-11 03:02:00,,0835.6,5.00,0.00,28.1,26.6,00.0,36.8,30.0,28.6,0000.0,0004.93,0003.70,0003.55
2022-09-11 03:03:00,,0835.6,5.00,0.00,28.1,26.6,00.0,36.8,30.0,28.5,0000.0,0004.92,0003.71,0003.57
2022-09-11 03:04:00,,0835.5,5.00,0.00,28.1,26.6,00.0,36.8,29.9,28.5,0000.0,0004.98,0003.73,0003.59
2022-09-11 03:05:00,,0835.5,5.00,0.00,28.1,26.6,00.0,36.8,29.9,28.5,0000.0,0004.96,0003.73,0003.59
2022-09-11 03:06:00,,0835.5,5.00,0.00,28.1,26.5,00.0,36.8,29.9,28.4,0000.0,0004.95,0003.73,0003.58
2022-09-11 03:07:00,,0835.6,5.00,0.00,28.1,26.5,00.0,36.8,29.9,28.3,0000.0,0004.82,0003.70,0003.56
2022-09-11 03:08:00,,0835.6,5.00,0.00,28.0,26.5,00.0,36.8,29.9,28.2,0000.0,0004.72,0003.67,0003.53
2022-09-11 03:09:00,,0835.6,5.00,0.00,28.0,26.5,00.0,36.8,29.9,28.1,0000.0,0004.74,0003.65,0003.50
2022-09-11 03:10:00,,0835.6,5.01,0.00,28.0,26.5,00.0,36.8,29.9,28.1,0000.0,0004.81,0003.65,0003.47
2022-09-11 03:11:00,,0835.6,5.00,0.00,28.0,26.4,00.0,36.8,29.9,28.0,0000.0,0004.94,0003.65,0003.46
2022-09-11 03:12:00,,0835.5,5.01,0.00,28.0,26.5,00.0,36.8,29.9,28.0,0000.0,0004.89,0003.62,0003.44
2022-09-11 03:13:00,,0835.6,5.00,0.00,28.0,26.4,00.0,36.8,29.9,28.0,0000.0,0004.82,0003.59,0003.41
2022-09-11 03:14:00,,0835.6,5.01,0.00,28.0,26.4,00.0,36.8,29.8,28.0,0000.0,0004.80,0003.58,0003.39
2022-09-11 03:15:00,,0835.6,4.99,0.00,28.0,26.4,00.0,36.8,29.8,28.0,0000.0,0004.86,0003.58,0003.37
2022-09-11 03:16:00,,0835.6,4.99,0.00,28.0,26.4,00.0,36.7,29.8,28.0,0000.0,0004.88,0003.57,0003.36
2022-09-11 03:17:00,,0835.6,5.00,0.00,28.0,26.5,00.0,36.7,29.8,28.0,0000.0,0004.77,0003.55,0003.36
2022-09-11 03:18:00,,0835.6,5.00,0.00,28.0,26.5,00.0,36.7,29.9,28.0,0000.0,0004.68,0003.52,0003.35
2022-09-11 03:19:00,,0835.6,5.00,0.00,28.0,26.5,00.0,36.7,29.8,28.1,0000.0,0004.64,0003.48,0003.32
2022-09-11 03:20:00,,0835.6,5.00,0.00,28.0,26.4,00.0,36.7,29.8,28.1,0000.0,0004.63,0003.46,0003.30
2022-09-11 03:21:00,,0835.6,4.99,0.00,28.0,26.5,00.0,36.8,29.8,28.2,0000.0,0004.55,0003.45,0003.29
2022-09-11 03:22:00,,0835.6,5.00,0.00,28.0,26.4,00.0,36.7,29.8,28.2,0000.0,0004.39,0003.41,0003.27
2022-09-11 03:23:00,,0835.6,5.00,0.00,28.0,26.5,00.0,36.7,29.8,28.2,0000.0,0004.33,0003.39,0003.24
2022-09-11 03:24:00,,0835.6,5.00,0.00,28.0,26.5,00.0,36.7,29.8,28.2,0000.0,0004.37,0003.39,0003.23
2022-09-11 03:25:00,,0835.6,5.01,0.00,28.0,26.5,00.0,36.7,29.9,28.2,0000.0,0004.38,0003.38,0003.22
2022-09-11 03:26:00,,0835.6,5.00,0.00,28.0,26.5,00.0,36.7,29.9,28.1,0000.0,0004.39,0003.38,0003.22
2022-09-11 03:27:00,,0835.6,5.01,0.00,28.0,26.5,00.0,36.7,29.9,28.0,0000.0,0004.44,0003.38,0003.23
2022-09-11 03:28:00,,0835.6,5.01,0.00,28.0,26.6,00.0,36.8,29.9,27.9,0000.0,0004.53,0003.40,0003.24
2022-09-11 03:29:00,,0835.6,4.98,0.00,28.0,26.6,00.0,36.7,29.9,27.8,0000.0,0004.58,0003.42,0003.26
2022-09-11 03:30:00,,0835.5,5.00,0.00,28.0,26.6,00.0,36.8,29.9,27.8,0000.0,0004.64,0003.46,0003.29
2022-09-11 03:31:00,,0835.6,5.00,0.00,28.0,26.6,00.0,36.8,29.9,28.5,0000.0,0004.78,0003.48,0003.31
2022-09-11 03:32:00,,0835.6,4.99,0.00,28.0,26.6,00.0,36.8,29.9,28.1,0000.0,0005.47,0003.51,0003.33
2022-09-11 03:33:00,,0835.6,5.00,0.00,28.1,26.6,00.0,36.8,29.9,27.7,0000.0,0005.60,0003.56,0003.38
2022-09-11 03:34:00,,0835.6,5.01,0.00,28.1,26.6,00.0,36.8,29.9,27.6,0000.0,0005.65,0003.61,0003.42
2022-09-11 03:35:00,,0835.6,5.00,0.00,28.1,26.6,00.0,36.8,29.9,27.6,0000.0,0005.79,0003.66,0003.46
2022-09-11 03:36:00,,0835.6,4.99,0.00,28.1,26.6,00.0,36.8,29.9,27.5,0000.0,0005.93,0003.71,0003.50
2022-09-11 03:37:00,,0835.6,5.00,0.00,28.1,26.6,00.0,36.8,29.9,27.5,0000.0,0005.91,0003.74,0003.53
2022-09-11 03:38:00,,0835.6,5.01,0.00,28.1,26.6,00.0,36.8,29.9,27.4,0000.0,0005.87,0003.78,0003.58
2022-09-11 03:39:00,,0835.6,5.00,0.00,28.1,26.6,00.0,36.8,30.0,27.4,0000.0,0005.95,0003.83,0003.63
2022-09-11 03:40:00,,0835.6,5.00,0.00,28.1,26.6,00.0,36.8,29.9,27.3,0000.0,0006.07,0003.88,0003.68
2022-09-11 03:41:00,,0835.6,5.00,0.00,28.1,26.6,00.0,36.8,29.9,27.3,0000.0,0006.03,0003.92,0003.73
2022-09-11 03:42:00,,0835.6,4.99,0.00,28.1,26.6,00.0,36.8,29.9,27.2,0000.0,0005.95,0003.98,0003.78
2022-09-11 03:43:00,,0835.6,5.01,0.00,28.1,26.6,00.0,36.8,30.0,27.2,0000.0,0005.40,0004.03,0003.83
2022-09-11 03:44:00,,0835.6,5.01,0.00,28.1,26.6,00.0,36.8,30.0,27.2,0000.0,0005.42,0004.05,0003.87
2022-09-11 03:45:00,,0835.6,5.00,0.00,28.1,26.6,00.0,36.8,30.0,27.2,0000.0,0005.43,0004.08,0003.91
2022-09-11 03:46:00,,0835.6,5.01,0.00,28.1,26.6,00.0,36.8,30.0,27.3,0000.0,0005.37,0004.10,0003.94
2022-09-11 03:47:00,,0835.5,5.00,0.00,28.1,26.6,00.0,36.8,30.0,27.4,0000.0,0005.29,0004.11,0003.97
2022-09-11 03:48:00,,0835.5,4.99,0.00,28.1,26.6,00.0,36.8,30.0,27.4,0000.0,0005.34,0004.15,0004.01
2022-09-11 03:49:00,,0835.5,5.00,0.00,28.1,26.6,00.0,36.8,30.0,27.5,0000.0,0005.35,0004.15,0004.01
2022-09-11 03:50:00,,0835.5,5.01,0.00,28.1,26.6,00.0,36.8,30.0,27.6,0000.0,0005.28,0004.14,0004.02
2022-09-11 03:51:00,,0835.6,5.00,0.00,28.1,26.6,00.0,36.8,30.0,27.7,0000.0,0005.29,0004.15,0004.03
2022-09-11 03:52:00,,0835.5,5.00,0.00,28.1,26.6,00.0,36.8,30.0,27.7,0000.0,0005.34,0004.17,0004.04
2022-09-11 03:53:00,,0835.5,5.00,0.00,28.1,26.7,00.0,36.8,30.0,27.7,0000.0,0005.56,0004.20,0004.04
2022-09-11 03:54:00,,0835.5,4.99,0.00,28.1,26.7,00.0,36.8,30.0,27.7,0000.0,0005.66,0004.21,0004.04
2022-09-11 03:55:00,,0835.6,5.01,0.00,28.1,26.7,00.0,36.8,30.0,27.6,0000.0,0005.79,0004.24,0004.04
2022-09-11 03:56:00,,0835.5,5.01,0.00,28.1,26.7,00.0,36.8,30.0,27.6,0000.0,0005.97,0004.26,0004.05
2022-09-11 03:57:00,,0835.6,5.00,0.00,28.1,26.7,00.0,36.9,30.0,27.7,0000.0,0006.03,0004.28,0004.06
2022-09-11 03:58:00,,0835.6,5.00,0.00,28.1,26.7,00.0,36.9,30.0,27.6,0000.0,0006.10,0004.30,0004.07
2022-09-11 03:59:00,,0835.6,4.98,0.00,28.2,26.6,00.0,36.9,30.0,27.7,0000.0,0006.58,0004.32,0004.08
